Time,TemperatureF,DewpointF,PressureIn,WindDirection,WindDirectionDegrees,WindSpeedMPH,WindSpeedGustMPH,Humidity,HourlyPrecipIn,Conditions,Clouds,dailyrainin,SolarRadiationWatts/m^2,SoftwareType,DateUTC
2013-02-13 00:00:00,59.4,56.8,29.95,North,0,1.0,7.0,91,0.00,,,0.00,0.00,VWS V14.00,2013-02-13 06:00:00,
2013-02-13 00:15:00,59.1,56.5,29.95,North,0,3.0,10.0,91,0.00,,,0.00,0.00,VWS V14.00,2013-02-13 06:15:00,
2013-02-13 00:30:00,58.8,56.2,29.96,North,0,2.0,6.0,91,0.00,,,0.00,0.00,VWS V14.00,2013-02-13 06:30:00,
2013-02-13 00:45:00,58.7,55.8,29.96,North,0,1.0,5.0,90,0.00,,,0.00,0.00,VWS V14.00,2013-02-13 06:45:00,
2013-02-13 01:00:00,58.7,55.5,29.98,North,0,1.0,4.0,89,0.00,,,0.00,0.00,VWS V14.00,2013-02-13 07:00:00,
2013-02-13 01:15:00,58.6,55.4,29.97,North,0,1.0,6.0,89,0.00,,,0.00,0.00,VWS V14.00,2013-02-13 07:15:00,
2013-02-13 01:30:00,58.3,55.1,29.97,North,0,2.0,5.0,89,0.00,,,0.00,0.00,VWS V14.00,2013-02-13 07:30:00,
2013-02-13 01:45:00,58.1,54.9,29.97,North,0,3.0,10.0,89,0.00,,,0.00,0.00,VWS V14.00,2013-02-13 07:45:00,
2013-02-13 02:00:00,58.2,54.7,29.98,North,0,4.0,10.0,88,0.00,,,0.00,0.00,VWS V14.00,2013-02-13 08:00:00,
2013-02-13 02:15:00,58.0,54.5,29.98,North,0,4.0,7.0,88,0.00,,,0.00,0.00,VWS V14.00,2013-02-13 08:15:00,
2013-02-13 02:30:00,57.8,54.3,29.98,North,0,4.0,12.0,88,0.00,,,0.01,0.00,VWS V14.00,2013-02-13 08:30:00,
2013-02-13 02:45:00,57.3,54.1,29.95,North,0,6.0,14.0,89,0.00,,,0.01,0.00,VWS V14.00,2013-02-13 08:45:00,
2013-02-13 03:00:00,57.0,54.1,29.96,North,0,5.0,13.0,90,0.00,,,0.01,0.00,VWS V14.00,2013-02-13 09:00:00,
2013-02-13 03:15:00,56.5,53.3,29.98,North,0,4.0,12.0,89,0.00,,,0.01,0.00,VWS V14.00,2013-02-13 09:15:00,
2013-02-13 03:30:00,56.0,52.8,30.00,North,0,4.0,9.0,89,0.00,,,0.01,0.00,VWS V14.00,2013-02-13 09:30:00,
2013-02-13 03:45:00,55.3,51.5,30.01,North,0,4.0,10.0,87,0.00,,,0.01,0.00,VWS V14.00,2013-02-13 09:45:00,
2013-02-13 04:00:00,54.8,51.0,30.01,North,0,4.0,9.0,87,0.00,,,0.01,0.00,VWS V14.00,2013-02-13 10:00:00,
2013-02-13 04:15:00,54.3,50.5,30.00,North,0,3.0,12.0,87,0.00,,,0.01,0.00,VWS V14.00,2013-02-13 10:15:00,
2013-02-13 04:30:00,53.4,49.0,30.00,North,0,4.0,11.0,85,0.00,,,0.01,0.00,VWS V14.00,2013-02-13 10:30:00,
2013-02-13 04:45:00,53.1,48.4,30.02,NW,315,3.0,12.0,84,0.00,,,0.01,0.00,VWS V14.00,2013-02-13 10:45:00,
2013-02-13 05:00:00,53.0,48.3,30.02,NW,315,3.0,13.0,84,0.00,,,0.01,0.00,VWS V14.00,2013-02-13 11:00:00,
2013-02-13 05:15:00,52.4,47.7,30.01,NW,315,3.0,7.0,84,0.00,,,0.01,0.00,VWS V14.00,2013-02-13 11:15:00,
2013-02-13 05:45:00,51.6,46.3,30.02,NNW,335,2.0,10.0,82,0.00,,,0.01,0.00,VWS V14.00,2013-02-13 11:45:00,
2013-02-13 06:00:00,50.3,44.4,30.03,North,0,3.0,12.0,80,0.00,,,0.01,0.00,VWS V14.00,2013-02-13 12:00:00,
2013-02-13 06:15:00,49.6,43.7,30.05,NW,315,3.0,9.0,80,0.00,,,0.01,0.00,VWS V14.00,2013-02-13 12:15:00,
2013-02-13 06:30:00,48.9,42.7,30.05,NW,315,4.0,12.0,79,0.00,,,0.01,0.00,VWS V14.00,2013-02-13 12:30:00,
2013-02-13 06:45:00,48.4,42.5,30.05,NW,315,4.0,15.0,80,0.00,,,0.01,0.00,VWS V14.00,2013-02-13 12:45:00,
2013-02-13 07:00:00,48.1,42.5,30.04,NNW,338,4.0,10.0,81,0.00,,,0.01,0.00,VWS V14.00,2013-02-13 13:00:00,
2013-02-13 07:15:00,47.7,41.8,30.05,North,0,3.0,10.0,80,0.00,,,0.01,0.00,VWS V14.00,2013-02-13 13:15:00,
2013-02-13 07:30:00,47.6,42.1,30.07,North,0,3.0,10.0,81,0.00,,,0.01,4.00,VWS V14.00,2013-02-13 13:30:00,
2013-02-13 07:45:00,47.5,42.0,30.06,North,0,3.0,14.0,81,0.00,,,0.01,12.00,VWS V14.00,2013-02-13 13:45:00,
2013-02-13 08:00:00,47.5,42.3,30.08,North,0,3.0,12.0,82,0.00,,,0.01,18.00,VWS V14.00,2013-02-13 14:00:00,
2013-02-13 08:15:00,47.4,42.5,30.07,North,0,3.0,10.0,83,0.00,,,0.02,38.00,VWS V14.00,2013-02-13 14:15:00,
2013-02-13 08:30:00,47.3,42.4,30.09,North,0,3.0,11.0,83,0.00,,,0.02,44.00,VWS V14.00,2013-02-13 14:30:00,
2013-02-13 08:45:00,47.7,42.5,30.08,North,0,3.0,12.0,82,0.00,,,0.02,118.00,VWS V14.00,2013-02-13 14:45:00,
2013-02-13 09:00:00,49.2,43.6,30.08,North,0,4.0,12.0,81,0.00,,,0.02,286.00,VWS V14.00,2013-02-13 15:00:00,
2013-02-13 09:15:00,49.1,43.2,30.09,North,0,4.0,12.0,80,0.00,,,0.02,208.00,VWS V14.00,2013-02-13 15:15:00,
2013-02-13 09:30:00,50.3,44.0,30.10,North,0,3.0,11.0,79,0.00,,,0.02,381.00,VWS V14.00,2013-02-13 15:30:00,
2013-02-13 09:45:00,50.5,43.6,30.11,NW,315,3.0,7.0,77,0.00,,,0.02,267.00,VWS V14.00,2013-02-13 15:45:00,
2013-02-13 10:00:00,49.4,42.5,30.11,NW,315,3.0,9.0,77,0.00,,,0.02,167.00,VWS V14.00,2013-02-13 16:00:00,
2013-02-13 10:15:00,49.9,42.0,30.10,NW,315,3.0,11.0,74,0.00,,,0.02,190.00,VWS V14.00,2013-02-13 16:15:00,
2013-02-13 10:30:00,49.7,41.8,30.11,North,0,4.0,12.0,74,0.00,,,0.02,215.00,VWS V14.00,2013-02-13 16:30:00,
2013-02-13 10:45:00,50.0,42.0,30.12,North,0,4.0,12.0,74,0.00,,,0.02,249.00,VWS V14.00,2013-02-13 16:45:00,
2013-02-13 11:00:00,50.7,43.1,30.11,North,0,3.0,9.0,75,0.00,,,0.02,191.00,VWS V14.00,2013-02-13 17:00:00,
2013-02-13 11:15:00,51.2,43.2,30.12,North,0,3.0,10.0,74,0.00,,,0.02,237.00,VWS V14.00,2013-02-13 17:15:00,
2013-02-13 11:30:00,52.8,44.0,30.11,NNW,338,2.0,7.0,72,0.00,,,0.02,355.00,VWS V14.00,2013-02-13 17:30:00,
2013-02-13 11:45:00,53.6,44.4,30.11,North,0,2.0,6.0,71,0.00,,,0.02,420.00,VWS V14.00,2013-02-13 17:45:00,
2013-02-13 12:00:00,55.1,45.1,30.10,WNW,292,2.0,7.0,69,0.00,,,0.02,768.00,VWS V14.00,2013-02-13 18:00:00,
2013-02-13 12:15:00,56.9,44.5,30.09,North,0,3.0,7.0,63,0.00,,,0.02,768.00,VWS V14.00,2013-02-13 18:15:00,
2013-02-13 12:30:00,57.1,44.2,30.09,NW,315,3.0,9.0,62,0.00,,,0.02,639.00,VWS V14.00,2013-02-13 18:30:00,
2013-02-13 12:45:00,57.6,44.3,30.08,NW,315,3.0,11.0,61,0.00,,,0.02,738.00,VWS V14.00,2013-02-13 18:45:00,
2013-02-13 13:00:00,57.9,44.1,30.07,NNW,338,4.0,11.0,60,0.00,,,0.02,787.00,VWS V14.00,2013-02-13 19:00:00,
2013-02-13 13:15:00,57.9,43.2,30.06,NNE,22,4.0,10.0,58,0.00,,,0.02,774.00,VWS V14.00,2013-02-13 19:15:00,
2013-02-13 13:30:00,58.7,44.4,30.05,NW,315,3.0,10.0,59,0.00,,,0.02,761.00,VWS V14.00,2013-02-13 19:30:00,
2013-02-13 13:45:00,59.6,45.3,30.04,WNW,292,3.0,7.0,59,0.00,,,0.02,745.00,VWS V14.00,2013-02-13 19:45:00,
2013-02-13 14:01:00,60.7,44.9,30.03,WNW,297,3.0,6.0,56,0.00,,,0.02,715.00,VWS V14.00,2013-02-13 20:01:00,
2013-02-13 14:15:00,60.8,44.1,30.03,WNW,292,3.0,7.0,54,0.00,,,0.02,702.00,VWS V14.00,2013-02-13 20:15:00,
2013-02-13 14:30:00,61.1,44.8,30.02,NW,315,2.0,7.0,55,0.00,,,0.02,677.00,VWS V14.00,2013-02-13 20:30:00,
2013-02-13 14:45:00,61.4,44.6,30.02,NW,315,3.0,7.0,54,0.00,,,0.02,643.00,VWS V14.00,2013-02-13 20:45:00,
2013-02-13 15:00:00,62.0,44.7,30.02,WNW,292,3.0,6.0,53,0.00,,,0.02,607.00,VWS V14.00,2013-02-13 21:00:00,
2013-02-13 15:15:00,62.4,44.6,30.01,NNW,338,2.0,6.0,52,0.00,,,0.02,569.00,VWS V14.00,2013-02-13 21:15:00,
2013-02-13 15:30:00,62.3,44.5,30.00,North,360,2.0,4.0,52,0.00,,,0.02,508.00,VWS V14.00,2013-02-13 21:30:00,
2013-02-13 15:45:00,62.3,44.5,30.00,North,0,2.0,6.0,52,0.00,,,0.02,482.00,VWS V14.00,2013-02-13 21:45:00,
2013-02-13 16:00:00,62.5,45.2,30.00,NW,315,2.0,7.0,53,0.00,,,0.02,435.00,VWS V14.00,2013-02-13 22:00:00,
2013-02-13 16:15:00,62.5,45.2,30.00,NW,315,2.0,6.0,53,0.00,,,0.02,386.00,VWS V14.00,2013-02-13 22:15:00,
2013-02-13 16:30:00,62.4,45.1,30.00,NNW,338,2.0,5.0,53,0.00,,,0.02,333.00,VWS V14.00,2013-02-13 22:30:00,
2013-02-13 16:45:00,62.8,45.4,29.99,NW,315,1.0,5.0,53,0.00,,,0.02,281.00,VWS V14.00,2013-02-13 22:45:00,
2013-02-13 17:00:00,62.4,44.6,29.99,North,0,1.0,6.0,52,0.00,,,0.02,209.00,VWS V14.00,2013-02-13 23:00:00,
2013-02-13 17:15:00,61.7,43.9,29.99,NNW,338,2.0,8.0,52,0.00,,,0.02,128.00,VWS V14.00,2013-02-13 23:15:00,
2013-02-13 17:30:00,61.2,44.9,29.99,North,0,2.0,6.0,55,0.00,,,0.02,92.00,VWS V14.00,2013-02-13 23:30:00,
2013-02-13 17:45:00,60.4,43.7,29.99,NNW,338,1.0,6.0,54,0.00,,,0.02,43.00,VWS V14.00,2013-02-13 23:45:00,
2013-02-13 18:00:00,59.2,43.5,30.00,North,0,3.0,5.0,56,0.00,,,0.02,18.00,VWS V14.00,2013-02-14 00:00:00,
2013-02-13 18:15:00,58.2,43.5,29.99,North,0,2.0,4.0,58,0.00,,,0.02,9.00,VWS V14.00,2013-02-14 00:15:00,
2013-02-13 18:30:00,57.2,43.0,30.00,North,0,2.0,4.0,59,0.00,,,0.02,1.00,VWS V14.00,2013-02-14 00:30:00,
2013-02-13 18:45:00,56.6,43.8,30.00,North,0,2.0,4.0,62,0.00,,,0.02,0.00,VWS V14.00,2013-02-14 00:45:00,
2013-02-13 19:00:00,56.4,44.0,30.00,North,0,2.0,5.0,63,0.00,,,0.02,0.00,VWS V14.00,2013-02-14 01:00:00,
2013-02-13 19:15:00,56.6,43.8,30.00,North,0,3.0,9.0,62,0.00,,,0.02,0.00,VWS V14.00,2013-02-14 01:15:00,
2013-02-13 19:30:00,56.4,44.0,30.01,North,0,4.0,9.0,63,0.00,,,0.02,0.00,VWS V14.00,2013-02-14 01:30:00,
2013-02-13 19:45:00,56.1,44.1,30.00,North,0,3.0,7.0,64,0.00,,,0.02,0.00,VWS V14.00,2013-02-14 01:45:00,
2013-02-13 20:00:00,55.6,43.6,30.01,North,0,3.0,6.0,64,0.00,,,0.02,0.00,VWS V14.00,2013-02-14 02:00:00,
2013-02-13 20:15:00,55.2,43.7,30.01,North,0,3.0,6.0,65,0.00,,,0.02,0.00,VWS V14.00,2013-02-14 02:15:00,
2013-02-13 20:30:00,55.0,43.5,30.01,North,0,3.0,6.0,65,0.00,,,0.02,0.00,VWS V14.00,2013-02-14 02:30:00,
2013-02-13 20:45:00,54.8,42.9,30.02,North,0,4.0,7.0,64,0.00,,,0.02,0.00,VWS V14.00,2013-02-14 02:45:00,
2013-02-13 21:00:00,54.7,43.6,30.02,North,0,3.0,9.0,66,0.00,,,0.02,0.00,VWS V14.00,2013-02-14 03:00:00,
2013-02-13 21:15:00,55.0,43.5,30.03,North,0,3.0,7.0,65,0.00,,,0.02,0.00,VWS V14.00,2013-02-14 03:15:00,
2013-02-13 21:30:00,55.3,42.5,30.03,North,0,3.0,6.0,62,0.00,,,0.02,0.00,VWS V14.00,2013-02-14 03:30:00,
2013-02-13 21:45:00,55.3,43.3,30.04,North,0,2.0,5.0,64,0.00,,,0.02,0.00,VWS V14.00,2013-02-14 03:45:00,
2013-02-13 22:00:00,55.3,43.8,30.04,NE,45,2.0,9.0,65,0.00,,,0.02,0.00,VWS V14.00,2013-02-14 04:00:00,
2013-02-13 22:15:00,53.8,43.5,30.05,ENE,68,1.0,4.0,68,0.00,,,0.02,0.00,VWS V14.00,2013-02-14 04:15:00,
2013-02-13 22:30:00,52.6,43.5,30.05,ENE,68,1.0,3.0,71,0.00,,,0.02,0.00,VWS V14.00,2013-02-14 04:30:00,
2013-02-13 22:45:00,51.9,43.5,30.05,ENE,68,0.0,3.0,73,0.00,,,0.02,0.00,VWS V14.00,2013-02-14 04:45:00,
2013-02-13 23:00:00,51.3,43.3,30.06,ENE,68,0.0,2.0,74,0.00,,,0.02,0.00,VWS V14.00,2013-02-14 05:00:00,
2013-02-13 23:15:00,50.6,43.0,30.06,ENE,68,0.0,2.0,75,0.00,,,0.02,0.00,VWS V14.00,2013-02-14 05:15:00,
2013-02-13 23:30:00,50.3,43.0,30.06,ENE,68,0.0,3.0,76,0.00,,,0.02,0.00,VWS V14.00,2013-02-14 05:30:00,
2013-02-13 23:45:00,50.0,43.1,30.06,ENE,68,0.0,2.0,77,0.00,,,0.02,0.00,VWS V14.00,2013-02-14 05:45:00,